Waarnemingen

Advertentie
Mijn weer
Landivisiau, Frankrijk (7106): temperatuur & dauwpunt: 17.10.2017 10:00:00 - 23.10.2017 10:00:00 (CEST)Landivisiau, Frankrijk (7106): windsnelheid & windstoten: 17.10.2017 10:00:00 - 23.10.2017 10:00:00 (CEST)Landivisiau, Frankrijk (7106): windrichting: 17.10.2017 10:00:00 - 23.10.2017 10:00:00 (CEST)Landivisiau, Frankrijk (7106): luchtdruk: 17.10.2017 10:00:00 - 23.10.2017 10:00:00 (CEST)Landivisiau, Frankrijk (7106): zicht: 17.10.2017 10:00:00 - 23.10.2017 10:00:00 (CEST)Landivisiau, Frankrijk (7106): neerslag: 17.10.2017 10:00:00 - 23.10.2017 10:00:00 (CEST)
Datum & Tijd tt [°C] td [°C] ff [km/u] ff [kn] fx [km/u] fx [kn] dd ppp [hPa] vv [km] rr [mm]
23.10.2017 10:00:00 - - - - - - - - - -
23.10.2017 09:00:00 13,6 12,8 26 14 52 28 ZW 1021,0 8 0,2
23.10.2017 08:00:00 13,9 12,5 31 17 52 28 ZW 1021,1 7 -
23.10.2017 07:00:00 13,5 12,2 28 15 48 26 ZW 1021,3 10 0,0
23.10.2017 06:00:00 13,6 11,8 26 14 39 21 ZW 1021,7 10 0,0
23.10.2017 05:00:00 12,9 11,5 18 10 29 16 ZZW 1022,0 10 -
23.10.2017 04:00:00 12,8 11,4 21 11 31 17 ZW 1022,8 10 0,0
23.10.2017 03:00:00 12,5 11,2 21 11 28 15 ZW 1022,9 10 0,0
23.10.2017 02:00:00 12,4 10,8 15 8 28 15 ZW 1023,4 10 -
23.10.2017 01:00:00 12,3 10,4 18 10 28 15 ZW 1023,7 10 0,0
23.10.2017 00:00:00 11,9 10,1 16 9 24 13 ZW 1023,9 10 0,0
22.10.2017 23:00:00 11,7 9,4 13 7 22 12 ZW 1024,2 10 -
22.10.2017 22:00:00 11,8 9,5 16 9 24 13 ZW 1024,4 10 0,0
22.10.2017 21:00:00 10,9 9,5 13 7 18 10 ZW 1024,6 10 0,0
22.10.2017 20:00:00 11,1 9,4 9 5 15 8 WZW 1024,6 10 -
22.10.2017 19:00:00 11,4 9,0 13 7 28 15 W 1024,3 10 0,0
22.10.2017 18:00:00 12,4 7,9 16 9 31 17 W 1024,2 10 0,0
22.10.2017 17:00:00 12,7 8,0 18 10 35 19 W 1024,2 10 -
22.10.2017 16:00:00 12,8 8,7 22 12 41 22 W 1024,4 10 0,0
22.10.2017 15:00:00 11,6 8,3 26 14 42 23 W 1024,7 10 0,0
22.10.2017 14:00:00 12,8 8,7 28 15 44 24 W 1024,4 10 -
22.10.2017 13:00:00 13,5 9,0 24 13 41 22 WNW 1024,0 10 0,0
22.10.2017 12:00:00 12,3 7,8 28 15 44 24 WNW 1023,6 10 0,0
22.10.2017 11:00:00 11,6 8,6 22 12 37 20 W 1023,3 10 -
22.10.2017 10:00:00 10,4 7,8 15 8 29 16 WNW 1022,9 10 0,0
22.10.2017 09:00:00 9,5 7,3 18 10 35 19 WNW 1022,2 10 0,0
22.10.2017 08:00:00 8,7 6,1 16 9 39 21 W 1021,9 10 -
22.10.2017 07:00:00 9,4 7,5 21 11 35 19 WNW 1021,7 10 0,2
22.10.2017 06:00:00 9,0 6,8 29 16 46 25 W 1021,0 10 0,2
22.10.2017 05:00:00 9,5 5,7 28 15 50 27 WNW 1020,5 10 -
22.10.2017 04:00:00 9,5 6,8 28 15 44 24 W 1020,1 10 0,2
22.10.2017 03:00:00 9,5 6,4 21 11 39 21 W 1019,5 10 0,0
22.10.2017 02:00:00 9,4 6,3 24 13 41 22 W 1019,4 10 -
22.10.2017 01:00:00 10,0 6,9 24 13 46 25 W 1019,2 10 0,0
22.10.2017 00:00:00 10,1 7,2 22 12 41 22 W 1018,5 10 0,0
21.10.2017 23:00:00 10,0 7,1 24 13 63 34 W 1017,8 10 -
21.10.2017 22:00:00 10,2 7,4 26 14 52 28 W 1017,1 10 1,0
21.10.2017 21:00:00 10,4 7,5 28 15 55 30 W 1016,7 10 0,0
21.10.2017 20:00:00 11,2 7,3 31 17 57 31 W 1015,9 10 -
21.10.2017 19:00:00 11,0 7,1 35 19 65 35 W 1015,2 10 0,2
21.10.2017 18:00:00 12,4 7,5 41 22 61 33 W 1014,5 10 0,0
21.10.2017 17:00:00 12,0 6,3 34 18 76 41 W 1014,0 10 -
21.10.2017 16:00:00 12,7 8,0 39 21 68 37 WZW 1013,1 10 0,2
21.10.2017 15:00:00 11,5 7,8 39 21 81 44 W 1012,7 10 0,6
21.10.2017 14:00:00 13,4 8,5 42 23 65 35 W 1012,2 4,6 -
21.10.2017 13:00:00 12,9 8,8 35 19 70 38 WZW 1011,7 10 0,8
21.10.2017 12:00:00 12,5 9,5 35 19 65 35 WZW 1011,1 10 3,0
21.10.2017 11:00:00 13,1 8,2 44 24 63 34 WZW 1010,6 10 -
21.10.2017 10:00:00 12,1 7,2 41 22 68 37 WZW 1010,0 10 0,0
21.10.2017 09:00:00 12,4 8,1 35 19 67 36 WZW 1009,2 10 0,0
21.10.2017 08:00:00 12,8 8,7 41 22 59 32 WZW 1008,7 10 -
21.10.2017 07:00:00 12,5 7,8 44 24 67 36 WZW 1008,3 10 0,6
21.10.2017 06:00:00 13,2 8,7 42 23 61 33 WZW 1007,6 10 0,0
21.10.2017 05:00:00 13,2 9,8 41 22 67 36 WZW 1007,4 10 -
21.10.2017 04:00:00 12,8 11,4 28 15 46 25 ZW 1006,8 10 0,0
21.10.2017 03:00:00 12,3 11,5 26 14 42 23 ZW 1006,8 10 0,0
21.10.2017 02:00:00 12,2 11,3 29 16 52 28 ZW 1006,4 10 -
21.10.2017 01:00:00 12,4 11,5 28 15 55 30 Z 1005,7 10 0,0
21.10.2017 00:00:00 12,5 11,7 28 15 50 27 ZZW 1005,6 10 2,0
20.10.2017 23:00:00 13,7 11,2 37 20 81 44 WZW 1006,0 10 -
20.10.2017 22:00:00 15,9 15,3 39 21 68 37 Z 1004,7 6 4,0
20.10.2017 21:00:00 15,5 14,7 35 19 57 31 Z 1005,4 4,9 0,8
20.10.2017 20:00:00 14,8 13,8 34 18 68 37 Z 1006,0 10 -
20.10.2017 19:00:00 15,1 12,8 35 19 61 33 Z 1007,0 10 0,0
20.10.2017 18:00:00 15,3 12,2 31 17 54 29 Z 1008,0 10 0,0
20.10.2017 17:00:00 15,7 11,1 39 21 63 34 Z 1008,8 10 -
20.10.2017 16:00:00 16,4 10,7 37 20 68 37 Z 1009,4 10 0,0
20.10.2017 15:00:00 16,3 10,4 35 19 59 32 ZZW 1010,5 10 0,0
20.10.2017 14:00:00 15,5 10,0 34 18 52 28 ZZW 1011,4 10 -
20.10.2017 13:00:00 14,7 9,3 31 17 42 23 ZZW 1012,2 10 0,0
20.10.2017 12:00:00 14,2 9,4 26 14 39 21 ZZW 1012,4 10 0,0
20.10.2017 11:00:00 12,3 9,1 11 6 21 11 ZW 1012,5 10 -
20.10.2017 10:00:00 11,0 8,9 15 8 18 10 ZW 1012,3 10 0,0
20.10.2017 09:00:00 9,4 7,8 13 7 18 10 ZW 1012,1 10 0,0
20.10.2017 08:00:00 10,1 7,9 15 8 22 12 WZW 1011,0 10 -
20.10.2017 07:00:00 9,9 7,8 16 9 24 13 WZW 1010,7 10 0,0
20.10.2017 06:00:00 10,2 8,0 16 9 24 13 WZW 1010,1 10 0,0
20.10.2017 05:00:00 10,9 8,3 18 10 31 17 WZW 1009,4 10 -
20.10.2017 04:00:00 10,8 8,2 18 10 34 18 WZW 1008,9 10 0,0
20.10.2017 03:00:00 10,8 8,4 18 10 37 20 WZW 1008,2 10 0,0
20.10.2017 02:00:00 11,4 8,6 26 14 39 21 W 1007,5 10 -
20.10.2017 01:00:00 11,0 8,6 22 12 41 22 WZW 1006,8 10 0,0
20.10.2017 00:00:00 11,4 9,1 26 14 37 20 WZW 1006,0 10 0,0
19.10.2017 23:00:00 11,7 9,3 22 12 37 20 W 1005,1 10 -
19.10.2017 22:00:00 11,8 9,5 22 12 39 21 W 1004,1 10 0,0
19.10.2017 21:00:00 12,3 10,4 22 12 44 24 W 1003,1 10 0,0
19.10.2017 20:00:00 12,9 11,3 26 14 52 28 W 1002,0 10 -
19.10.2017 19:00:00 13,7 11,6 34 18 48 26 W 1000,4 10 0,0
19.10.2017 18:00:00 14,2 13,4 39 21 68 37 WZW 999,4 10 5,0
19.10.2017 17:00:00 14,4 13,8 35 19 59 32 Z 998,8 3,1 -
19.10.2017 16:00:00 14,3 13,3 35 19 61 33 Z 1000,0 4,1 3,0
19.10.2017 15:00:00 16,1 12,8 39 21 65 35 Z 1000,7 10 0,0
19.10.2017 14:00:00 15,5 12,8 35 19 54 29 Z 1001,9 10 -
19.10.2017 13:00:00 15,4 12,9 24 13 48 26 Z 1003,3 10 0,0
19.10.2017 12:00:00 14,6 13,1 22 12 37 20 Z 1004,0 10 0,0
19.10.2017 11:00:00 13,7 12,8 15 8 26 14 ZZW 1004,8 10 -
19.10.2017 10:00:00 12,7 11,9 16 9 26 14 ZZW 1005,2 10 0,0
19.10.2017 09:00:00 12,0 11,2 5 3 15 8 WZW 1004,9 8 0,0
19.10.2017 08:00:00 11,9 11,4 11 6 18 10 ZZO 1004,8 7 -
19.10.2017 07:00:00 11,6 11,0 8 4 15 8 ZO 1005,4 6 0,0
19.10.2017 06:00:00 11,8 10,9 9 5 16 9 Z 1006,1 7 0,0
19.10.2017 05:00:00 12,2 11,3 5 3 11 6 ZW 1006,7 8 -
19.10.2017 04:00:00 11,8 10,9 8 4 15 8 ZW 1007,4 10 0,0
19.10.2017 03:00:00 12,2 10,8 9 5 16 9 ZZO 1007,5 10 0,0
19.10.2017 02:00:00 13,0 11,6 13 7 18 10 OZO 1007,8 10 -
19.10.2017 01:00:00 12,3 11,5 4 2 9 5 ONO 1008,9 10 0,0
19.10.2017 00:00:00 12,1 11,3 2 1 8 4 ONO 1009,5 10 0,0
18.10.2017 23:00:00 13,0 12,1 8 4 13 7 O 1009,7 10 -
18.10.2017 22:00:00 12,0 11,1 9 5 11 6 ONO 1009,9 10 0,0
18.10.2017 21:00:00 12,9 11,8 5 3 11 6 NO 1010,1 10 0,0
18.10.2017 20:00:00 13,3 12,2 8 4 9 5 NO 1010,2 10 -
18.10.2017 19:00:00 15,5 12,4 4 2 8 4 NO 1009,6 10 0,0
18.10.2017 18:00:00 17,1 12,8 4 2 9 5 WNW 1009,5 10 0,0
18.10.2017 17:00:00 18,0 12,0 5 3 9 5 - 1009,5 10 -
18.10.2017 16:00:00 18,4 12,4 5 3 16 9 ZW 1009,7 10 0,0
18.10.2017 15:00:00 17,8 12,9 11 6 22 12 W 1009,9 10 0,0
18.10.2017 14:00:00 17,4 13,3 11 6 18 10 WZW 1010,5 10 -
18.10.2017 13:00:00 17,4 12,9 9 5 13 7 ZZW 1010,7 10 0,0
18.10.2017 12:00:00 16,6 13,5 9 5 16 9 Z 1010,7 10 0,0
18.10.2017 11:00:00 14,7 13,1 4 2 11 6 - 1010,9 10 -
18.10.2017 10:00:00 12,6 12,3 9 5 9 5 ZZO 1010,8 10 0,0
18.10.2017 09:00:00 11,4 11,1 5 3 11 6 ZO 1010,5 0,6 0,0
18.10.2017 08:00:00 11,7 11,4 9 5 13 7 ZZO 1010,4 6 -
18.10.2017 07:00:00 12,2 11,9 9 5 13 7 ZO 1010,7 7 0,0
18.10.2017 06:00:00 12,6 12,1 8 4 16 9 ZW 1010,7 10 0,0
18.10.2017 05:00:00 13,0 12,4 8 4 18 10 ZZW 1011,1 10 -
18.10.2017 04:00:00 13,7 13,2 15 8 26 14 ZW 1011,3 9 0,0
18.10.2017 03:00:00 14,5 14,0 11 6 24 13 ZZW 1011,4 5 0,2
18.10.2017 02:00:00 14,3 14,0 13 7 18 10 Z 1011,6 7 -
18.10.2017 01:00:00 12,7 12,2 9 5 15 8 ZZO 1012,1 10 0,0
18.10.2017 00:00:00 12,0 11,2 9 5 13 7 OZO 1012,7 10 0,0
17.10.2017 23:00:00 12,3 11,4 13 7 16 9 O 1012,8 10 -
17.10.2017 22:00:00 12,4 11,5 13 7 18 10 O 1012,9 10 0,0
17.10.2017 21:00:00 12,2 11,6 13 7 22 12 O 1013,7 10 0,4
17.10.2017 20:00:00 12,0 11,5 13 7 22 12 O 1014,3 6 -
17.10.2017 19:00:00 12,1 11,5 15 8 29 16 ONO 1014,3 10 0,6
17.10.2017 18:00:00 12,2 11,4 18 10 26 14 ONO 1014,8 10 1,0
17.10.2017 17:00:00 12,4 11,8 13 7 26 14 ONO 1015,8 5 -
17.10.2017 16:00:00 11,8 10,7 15 8 22 12 ONO 1016,2 8 0,6
17.10.2017 15:00:00 11,7 10,8 13 7 18 10 NO 1017,2 10 0,2
17.10.2017 14:00:00 11,7 10,4 8 4 16 9 NO 1018,9 10 -
17.10.2017 13:00:00 11,4 10,1 11 6 22 12 ONO 1019,4 10 2,0
17.10.2017 12:00:00 11,4 9,8 13 7 22 12 OZO 1020,2 9 1,0
17.10.2017 11:00:00 11,8 9,2 13 7 18 10 OZO 1020,5 10 -
17.10.2017 10:00:00 11,3 9,2 9 5 18 10 ZO 1020,5 10 0,0

tt = temperatuur
td = dauwpunt
ff = windsnelheid
fx = windstoten
dd = windrichting
ppp = luchtdruk
vv = zicht
rr = neerslag

Weerstations in de omgeving